Regional Weather Roundup
Issued by NWS

Home | Current Version | Previous Version | Text Only | Print | Product List | Glossary Off
Versions: 1 2 3 4 5 6 7 8 9 10 11 12 13 14 15 16 17 18 19 20 21 22 23 24 25 26 27 28 29 30 31 32 33 34 35 36 37 38 39 40 41 42 43 44 45 46 47 48 49 50

000
ASUS43 KMPX 262010
RWRMN
WEATHER ROUNDUP FOR MINNESOTA
NATIONAL WEATHER SERVICE TWIN CITIES/CHANHASSEN MN
200 PM CST THU FEB 26 2015


NOTE: "FAIR" INDICATES FEW OR NO CLOUDS BELOW 12,000 FEET WITH NO
SIGNIFICANT WEATHER AND/OR OBSTRUCTIONS TO VISIBILITY. N/A MEANS
CURRENT SKY AND/OR WEATHER CONDITIONS ARE NOT AVAILABLE.

MNZ060>063-068>070-262100-
   Twin Cities Metro

CITY           SKY/WX    TMP DP  RH WIND       PRES   REMARKS
TWIN CITIES    MOSUNNY   10  -8  44 VRB7      30.44F WCI  -1
ST PAUL        MOSUNNY    9  -9  44 NW8       30.46S WCI  -3
CRYSTAL        PTSUNNY    8  -8  48 NW10      30.43F WCI  -6
BLAINE         MOSUNNY   10  -6  48 NW13      30.43S WCI  -5
EDEN PRAIRIE   MOSUNNY    9  -6  50 N6        30.43F WCI  -1
SOUTH ST PAUL  SUNNY     10  -7  46 NW13      30.44S WCI  -5
LAKE ELMO      FAIR      10  -6  48 N7        30.43S WCI   0
$$
MNZ001>005-007-008-013>017-022>024-027-028-262100-
   Northwest Minnesota

CITY           SKY/WX    TMP DP  RH WIND       PRES   REMARKS
BEMIDJI        SUNNY      0 -13  54 NW7       30.42F WCI -13
HALLOCK        SUNNY      3  -8  60 NW10      30.52F WCI -12
ROSEAU         SUNNY      3  -8  60 W12       30.45F WCI -13
WARROAD        SUNNY      3  -9  55 SW8       30.44F WCI -10
THIEF RVR FALL SUNNY      0 -18  42 W12       30.49F WCI -18
CROOKSTON      SUNNY      3  -2  78 NW10      30.54F WCI -12
FOSSTON        SUNNY      3  -9  55 NW8       30.48F WCI -10
DETROIT LAKES  MOSUNNY    3  -6  66 N13       30.47F WCI -14
MOORHEAD       MOSUNNY    3  -4  72 NW12G17   30.55F WCI -13
PARK RAPIDS    SUNNY      5 -10  50 NW13      30.41F WCI -12
MAHNOMEN       FAIR       0  -9  67 NW12      30.49S WCI -17
$$
MNZ006-009>011-018-025>026-262100-
   North Central Minnesota

CITY           SKY/WX    TMP DP  RH WIND       PRES   REMARKS
BAUDETTE       SUNNY      2 -13  49 W8        30.41F WCI -12
FLAG ISLAND    SUNNY      0  -9  65 S8        30.41F WCI -15
INTL FALLS     SUNNY      2 -14  47 W10       30.39F WCI -14
WASKISH        SUNNY      1  -9  60 SW8       30.43F WCI -12
BIG FORK       SUNNY      7 -13  40 W5        30.38F WCI  -2
LONGVILLE      SUNNY      1 -15  46 W8        30.42F WCI -12
GRAND RAPIDS   SUNNY      3  -9  55 NW10      30.37S WCI -12
CRANE LAKE     SUNNY      1 -15  46 NW8       30.39F WCI -12
ORR            SUNNY      3 -15  43 NW7       30.33F WCI  -9
COOK           SUNNY      3 -13  47 W10       30.35F WCI -12
WALKER         FAIR       2 -12  51 W10       30.42F WCI -14
$$
MNZ012-019>021-037-262100-
   Northeast Minnesota

CITY           SKY/WX    TMP DP  RH WIND       PRES   REMARKS
DULUTH         SUNNY      7 -11  43 NW12      30.32F WCI  -8
ELY            SUNNY      5 -15  39 W9        30.31F WCI  -9
HIBBING        SUNNY      4 -11  50 NW13      30.35F WCI -13
EVELETH        SUNNY      5  -9  51 NW7       30.35F WCI  -7
DULUTH HARBOR  SUNNY      9  -9  43 CALM      30.43S
TWO HARBORS    FAIR      10  -8  44 W7        30.33S WCI   0
SILVER BAY     SUNNY     12 -11  34 NW5       30.31F WCI   4
GRAND MARAIS     N/A     12 -10  36 N6        30.34F WCI   3
G MARAIS ARPRT SUNNY      3 -15  43 NW6       30.21F WCI  -8
$$
MNZ029>031-032-039>041-046>048-054>057-064-262100-
   West Central Minnesota

CITY           SKY/WX    TMP DP  RH WIND       PRES   REMARKS
FERGUS FALLS   MOSUNNY    1  -9  60 NW16G25   30.55S WCI -18
WHEATON        SUNNY      0  -9  65 NW13      30.56S WCI -18
MORRIS         MOSUNNY    3  -6  66 NW20      30.49F HAZE    WCI -18
ALEXANDRIA     SUNNY      1 -10  60 NW15      30.44F WCI -18
ELBOW LAKE     PTSUNNY    1  -8  67 N14       30.48F WCI -17
WADENA         SUNNY      1  -9  60 NW8       30.43F WCI -12
GLENWOOD       SUNNY      3  -8  60 NW15      30.45F WCI -15
APPLETON       MOSUNNY    3  -8  60 NW15      30.53S WCI -15
BENSON         CLOUDY     3  -8  60 N17       30.49F WCI -17
ORTONVILLE       N/A      1  -9  60 N14       30.52F WCI -17
MADISON        MOSUNNY    3  -6  66 NW16      30.53F HAZE    WCI -16
WILLMAR        FAIR       3  -8  60 NW17      30.48F WCI -17
$$
MNZ033>034-036-042>043-049>051-058-059-262100-
   Central Minnesota

CITY           SKY/WX    TMP DP  RH WIND       PRES   REMARKS
ST CLOUD       SUNNY      5  -8  55 W10       30.44F WCI -10
SAUK CENTRE    FAIR       3  -8  58 NW12G17   30.45S WCI -13
PAYNESVILLE    MOSUNNY    2  -9  61 W10G18    30.45F WCI -14
AITKIN         SUNNY      9 -11  40 W8        30.39F WCI  -4
PINE RIVER     SUNNY      3  -9  55 N7        30.44F WCI  -9
BRAINERD       SUNNY      4 -10  52 NW8       30.42F WCI  -9
STAPLES        SUNNY      3  -9  55 W8        30.43S WCI -10
LONG PRAIRIE   FAIR       3  -8  60 NW13      30.43F WCI -14
LITTLE FALLS   SUNNY      5  -9  51 NW8       30.44F WCI  -8
LITCHFIELD     FAIR       5  -6  61 CALM      30.45F
BUFFALO        SUNNY      9  -8  47 NW12      30.46S WCI  -6
MAPLE LAKE     MOSUNNY    8  -5  55 NW7       30.45S WCI  -3
$$
MNZ037-044-045-052-053-262100-
   East Central Minnesota

CITY           SKY/WX    TMP DP  RH WIND       PRES   REMARKS
PRINCETON      MOSUNNY    9  -8  47 W9        30.43F WCI  -5
MORA           SUNNY      9  -9  43 NW8       30.44S WCI  -4
CAMBRIDGE      SUNNY      9  -6  52 NW7       30.41F WCI  -3
RUSH CITY      MOSUNNY    9  -8  45 NW5       30.42F WCI   0
MOOSE LAKE     SUNNY      9  -9  43 CALM      30.38S
HINCKLEY       FAIR      10  -8  44 N7        30.40F WCI   0
CLOQUET        SUNNY      5 -13  43 NW12G17   30.35F WCI -11
MCGREGOR       SUNNY      9  -8  47 NW7       30.40F WCI  -3
$$
MNZ071>073-080-081-089-090-097-098-262100-
   Southwest Minnesota

CITY           SKY/WX    TMP DP  RH WIND       PRES   REMARKS
MONTEVIDEO     PTSUNNY    3  -6  66 N16       30.52S HAZE    WCI -16
GRANITE FALLS  PTSUNNY    3  -6  65 W15       30.53S WCI -15
CANBY          CLOUDY     3  -6  66 NW13G20   30.53S HAZE    WCI -14
MARSHALL       PTSUNNY    1  -8  66 N18       30.51S WCI -19
REDWOOD FALLS  CLOUDY     4  -8  57 NW18      30.49F WCI -16
OLIVIA         PTSUNNY    3  -6  66 NW15G24   30.48F WCI -15
PIPESTONE      SUNNY      1  -6  71 NW15G24   30.44S WCI -18
WINDOM         PTSUNNY    3  -6  66 NW20      30.44F WCI -18
WORTHINGTON    CLOUDY    21  -9  25 NW15      30.45S WCI   8
JACKSON        PTSUNNY    5  -6  61 NW16G25   30.44S WCI -14
TRACY          PTSUNNY    3  -5  69 NW16      30.48S HAZE    WCI -16
SLAYTON        PTSUNNY    2  -8  62 NW15      30.45S WCI -17
$$
MNZ065>067-074>077-082>085-091>093-262100-
   South Central Minnesota

CITY           SKY/WX    TMP DP  RH WIND       PRES   REMARKS
MANKATO        MOSUNNY    3  -8  60 NW14      30.45F WCI -15
NEW ULM        SUNNY      3  -8  60 NW15      30.47S WCI -15
ST JAMES       MOSUNNY    3  -4  72 NW18      30.48S WCI -17
FAIRMONT       CLOUDY     3  -6  66 NW15      30.43F WCI -15
GLENCOE        SUNNY      7  -4  61 W10       30.45F WCI  -7
FARIBAULT      SUNNY      7  -6  56 W9        30.42F WCI  -7
OWATONNA       SUNNY      5  -8  56 W14       30.41F WCI -12
WASECA         SUNNY      5  -6  61 NW12      30.44F WCI -11
ALBERT LEA     SUNNY      3  -6  66 NW9       30.40S WCI -11
$$
MNZ078>079-086>088-094>096-262100-
   Southeast Minnesota

CITY           SKY/WX    TMP DP  RH WIND       PRES   REMARKS
ROCHESTER      MOSUNNY    5  -7  57 N15       30.36F WCI -13
RED WING       SUNNY     10  -9  40 N7        30.42F WCI   0
STANTON        SUNNY      9  -6  50 NW14      30.41F WCI  -8
DODGE CENTER   MOSUNNY    5  -6  61 NW12      30.37S WCI -11
WINONA         CLOUDY    12   0  57 NW12      30.42S WCI  -2
AUSTIN         SUNNY      3  -8  60 NW14      30.39S WCI -15
PRESTON        PTSUNNY    5  -6  61 NW16      30.36S WCI -14
$$
ABBREVIATIONS USED IN REMARKS
   TC - TEMPERATURES IN CELSIUS
  WCI - WIND CHILL INDEX
   HX - HEAT INDEX
  VSB - VISIBILITY
$$



USA.gov is the U.S. government's official web portal to all federal, state and local government web resources and services.